User: anonymous   Login
Location: Newark
(40.3417°N, 75.9264°W)
Time: 08:23:10
(UTC+00:00)
Language:

AAUSAT CUBESAT 2 - Orbit

View from above orbital plane
View from above orbital plane
View from above satellite
View from above satellite

Ground track
Ground track

The orbit data is extracted from the following two-line orbital elements,

1 32788U 08021F   20157.74006990  .00000274  00000-0  29953-4 0  9994
2 32788  97.4908 162.7605 0013357  94.5857 265.6890 14.95057321657664
Epoch (UTC): 05 June 2020 17:45:42
Eccentricity: 0.0013357
inclination: 97.4908°
perigee height: 573 km
apogee height: 591 km
right ascension of ascending node: 162.7605°
argument of perigee: 94.5857°
revolutions per day: 14.95057321
mean anomaly at epoch: 265.6890°
orbit number at epoch: 65766

The dashed part of the orbit path shows where the satellite is in the earth's shadow,  

DLR